Location: Clanezzo
(45.7500°N, 9.6000°E)
Time: 09:20:37
(UTC+00:00)

CUTE-I - Pass Details

Date: 08 December 2023
Orbit: 807 x 822 km, 98.7° (Epoch: 23 February)

Event Time Altitude Azimuth Distance (km) Brightness Sun altitude
Rises 05:48:22 0° 14° (NNE) 3,364 ? -10.3°
Reaches altitude 10° 05:50:43 10° 15° (NNE) 2,428 ? -9.9°
Maximum altitude 05:56:07 87° 105° (ESE) 831 ? -9.0°
Drops below altitude 10° 06:01:29 10° 194° (SSW) 2,416 ? -8.2°
Sets 06:03:49 0° 195° (SSW) 3,344 ? -7.8°
